Tracking 29040 objects as of 16-Jun-2024
HD Live streaming from Space Station
objects crossing your sky now

BPA 3/SL-24 R/B

Track BPA 3/SL-24 R/B now!
10-day predictions


NORAD ID: 39448
Int'l Code: 2013-066AJ
Perigee: 597.7 km
Apogee: 1,613.6 km
Inclination: 97.7 °
Period: 107.2 minutes
Semi major axis: 7476 km
RCS: Unknown
Launch date: November 21, 2013
Source: Commonwealth of Independent States (former USSR) (CIS)
Launch site: Orenburg, Russia (OREN)

Note: This is a ROCKET BODY
Your satellite tracking list
Your tracking list is empty




NASA's NSSDC Master Catalog

Two Line Element Set (TLE):
1 39448U 13066AJ  24168.44339485  .00000112  00000-0  60397-4 0  9998
2 39448  97.6873 130.6027 0679382 141.9279 223.1940 13.42903986517792
Source of the keplerian elements: AFSPC